When you browse on this site, cookies collect data to enhance your experience and personalize the content and advertising you see.
Visit our Privacy Policy to learn more. By continuing to use the site, you agree to this use of cookies and data.
  • In Portugal
  • List of Countries
  • For 7 days
  • Water Temperature
  • Weather Map
  • Weather Widgets
  • user-avatar
    Login

    Hourly Weather Silistra

    Today, 1 April, Wednesday

    Time Temperature Precipitation Wind Pressure Humidity
    00:00 +1°C° 0 mm 3 mps 761 mmHg 49%
    01:00 +1°C° 0 mm 3 mps 761 mmHg 50%
    02:00 +1°C° 0 mm 3 mps 761 mmHg 46%
    03:00 +1°C° 0 mm 3 mps 761 mmHg 47%
    04:00 +1°C° 0 mm 3 mps 761 mmHg 49%
    05:00 +1°C° 0 mm 3 mps 761 mmHg 50%
    06:00 0°C° 0 mm 4 mps 761 mmHg 49%
    07:00 +1°C° 0 mm 4 mps 761 mmHg 47%
    08:00 +1°C° 0 mm 5 mps 762 mmHg 46%
    09:00 +2°C° 0 mm 5 mps 762 mmHg 44%
    10:00 +3°C° 0 mm 5 mps 762 mmHg 43%
    11:00 +5°C° 0 mm 5 mps 761 mmHg 42%
    12:00 +6°C° 0 mm 5 mps 761 mmHg 43%
    13:00 +6°C° 0 mm 5 mps 761 mmHg 43%
    14:00 +7°C° 0 mm 5 mps 761 mmHg 45%
    15:00 +6°C° 0 mm 5 mps 761 mmHg 45%
    16:00 +6°C° 0 mm 5 mps 760 mmHg 44%
    17:00 +6°C° 0 mm 5 mps 759 mmHg 44%
    18:00 +3°C° 0 mm 5 mps 759 mmHg 47%
    19:00 +3°C° 0 mm 4 mps 760 mmHg 50%
    20:00 +1°C° 0 mm 4 mps 760 mmHg 53%
    21:00 +1°C° 0 mm 3 mps 760 mmHg 56%
    22:00 +2°C° 0 mm 2 mps 760 mmHg 59%
    23:00 +1°C° 0 mm 2 mps 760 mmHg 62%

    Tomorrow, 2 April, Thursday

    Time Temperature Precipitation Wind Pressure Humidity
    00:00 +1°C° 0 mm 2 mps 760 mmHg 63%
    01:00 +2°C° 0 mm 1 mps 760 mmHg 64%
    02:00 +1°C° 0 mm 1 mps 759 mmHg 64%
    03:00 -1°C° 0 mm 2 mps 759 mmHg 63%
    04:00 -1°C° 0 mm 2 mps 759 mmHg 62%
    05:00 -1°C° 0 mm 2 mps 759 mmHg 61%
    06:00 +1°C° 0 mm 2 mps 759 mmHg 56%
    07:00 +2°C° 0 mm 2 mps 759 mmHg 51%
    08:00 +3°C° 0 mm 3 mps 759 mmHg 46%
    09:00 +4°C° 0 mm 3 mps 759 mmHg 45%
    10:00 +7°C° 0 mm 3 mps 758 mmHg 43%
    11:00 +8°C° 0 mm 4 mps 758 mmHg 41%
    12:00 +10°C° 0 mm 4 mps 758 mmHg 40%
    13:00 +10°C° 0 mm 3 mps 757 mmHg 39%
    14:00 +11°C° 0 mm 3 mps 757 mmHg 39%
    15:00 +11°C° 0 mm 4 mps 757 mmHg 40%
    16:00 +10°C° 0 mm 4 mps 756 mmHg 41%
    17:00 +10°C° 0 mm 4 mps 756 mmHg 42%
    18:00 +7°C° 0 mm 4 mps 756 mmHg 47%
    19:00 +6°C° 0 mm 4 mps 756 mmHg 53%
    20:00 +4°C° 0 mm 3 mps 757 mmHg 58%
    21:00 +3°C° 0 mm 3 mps 757 mmHg 62%
    22:00 +3°C° 0 mm 3 mps 757 mmHg 65%
    23:00 +3°C° 0 mm 2 mps 757 mmHg 69%

    Day after tomorrow, 3 April, Friday

    Time Temperature Precipitation Wind Pressure Humidity
    00:00 +3°C° 0 mm 2 mps 757 mmHg 70%
    01:00 +2°C° 0 mm 2 mps 757 mmHg 71%
    02:00 +2°C° 0 mm 2 mps 757 mmHg 72%
    03:00 +2°C° 0 mm 2 mps 756 mmHg 71%
    04:00 +3°C° 0 mm 1 mps 756 mmHg 70%
    05:00 +3°C° 0 mm 1 mps 756 mmHg 69%
    06:00 +4°C° 0 mm 1 mps 756 mmHg 64%
    07:00 +5°C° 0 mm 2 mps 756 mmHg 59%
    08:00 +6°C° 0 mm 2 mps 757 mmHg 54%
    09:00 +8°C° 0 mm 2 mps 756 mmHg 48%
    10:00 +10°C° 0 mm 2 mps 756 mmHg 42%
    11:00 +13°C° 0 mm 2 mps 756 mmHg 36%
    12:00 +14°C° 0 mm 2 mps 756 mmHg 35%
    13:00 +15°C° 0 mm 2 mps 755 mmHg 34%
    14:00 +16°C° 0 mm 2 mps 755 mmHg 32%
    15:00 +16°C° 0 mm 3 mps 755 mmHg 34%
    16:00 +16°C° 0 mm 3 mps 755 mmHg 35%
    17:00 +16°C° 0 mm 3 mps 755 mmHg 37%
    18:00 +13°C° 0 mm 3 mps 755 mmHg 45%
    19:00 +11°C° 0 mm 4 mps 755 mmHg 53%
    20:00 +8°C° 0 mm 4 mps 756 mmHg 61%
    21:00 +7°C° 0 mm 4 mps 756 mmHg 65%
    22:00 +7°C° 0 mm 4 mps 756 mmHg 69%
    23:00 +7°C° 0 mm 3 mps 757 mmHg 73%

    4 April, Saturday

    Time Temperature Precipitation Wind Pressure Humidity
    00:00 +7°C° 0 mm 3 mps 757 mmHg 75%
    01:00 +7°C° 0 mm 3 mps 757 mmHg 77%
    02:00 +6°C° 0 mm 2 mps 757 mmHg 78%
    03:00 +6°C° 0 mm 2 mps 757 mmHg 78%
    04:00 +7°C° 0 mm 1 mps 757 mmHg 78%
    05:00 +7°C° 0 mm 1 mps 757 mmHg 77%
    06:00 +8°C° 0 mm 1 mps 758 mmHg 74%
    07:00 +10°C° 0 mm 1 mps 758 mmHg 70%
    08:00 +11°C° 0 mm 1 mps 759 mmHg 66%
    09:00 +12°C° 0 mm 1 mps 759 mmHg 61%
    10:00 +13°C° 0 mm 2 mps 759 mmHg 56%
    11:00 +15°C° 0 mm 2 mps 759 mmHg 51%
    12:00 +15°C° 0 mm 2 mps 759 mmHg 49%
    13:00 +16°C° 0 mm 2 mps 759 mmHg 47%
    14:00 +17°C° 0 mm 2 mps 759 mmHg 45%
    15:00 +17°C° 0 mm 3 mps 759 mmHg 47%
    16:00 +17°C° 0 mm 3 mps 760 mmHg 48%
    17:00 +17°C° 0 mm 3 mps 760 mmHg 49%
    18:00 +14°C° 0 mm 3 mps 760 mmHg 55%
    19:00 +12°C° 0 mm 3 mps 761 mmHg 62%
    20:00 +11°C° 0 mm 3 mps 761 mmHg 68%
    21:00 +10°C° 0 mm 3 mps 761 mmHg 68%
    22:00 +9°C° 0 mm 3 mps 762 mmHg 69%
    23:00 +8°C° 0 mm 2 mps 762 mmHg 69%

    5 April, Sunday

    Time Temperature Precipitation Wind Pressure Humidity
    00:00 +8°C° 0 mm 3 mps 763 mmHg 70%
    01:00 +8°C° 0 mm 3 mps 763 mmHg 70%
    02:00 +8°C° 0 mm 3 mps 763 mmHg 71%
    03:00 +7°C° 0 mm 5 mps 763 mmHg 70%
    04:00 +7°C° 0 mm 6 mps 764 mmHg 69%
    05:00 +6°C° 0 mm 8 mps 764 mmHg 68%
    06:00 +7°C° 0 mm 9 mps 765 mmHg 61%
    07:00 +7°C° 0 mm 9 mps 765 mmHg 55%
    08:00 +7°C° 0 mm 10 mps 766 mmHg 48%
    09:00 +8°C° 0 mm 10 mps 766 mmHg 43%
    10:00 +9°C° 0 mm 10 mps 766 mmHg 38%
    11:00 +11°C° 0 mm 10 mps 766 mmHg 33%
    12:00 +11°C° 0 mm 10 mps 766 mmHg 31%
    13:00 +12°C° 0 mm 10 mps 766 mmHg 30%
    14:00 +12°C° 0 mm 10 mps 766 mmHg 29%
    15:00 +12°C° 0 mm 10 mps 766 mmHg 31%
    16:00 +11°C° 0 mm 9 mps 766 mmHg 33%
    17:00 +11°C° 0 mm 9 mps 765 mmHg 35%
    18:00 +9°C° 0 mm 8 mps 766 mmHg 37%
    19:00 +8°C° 0 mm 7 mps 766 mmHg 39%
    20:00 +7°C° 0 mm 6 mps 767 mmHg 41%
    21:00 +5°C° 0 mm 6 mps 767 mmHg 43%
    22:00 +5°C° 0 mm 6 mps 768 mmHg 45%
    23:00 +5°C° 0 mm 7 mps 768 mmHg 47%

    6 April, Monday

    Time Temperature Precipitation Wind Pressure Humidity
    00:00 +4°C° 0 mm 7 mps 768 mmHg 49%
    01:00 +4°C° 0 mm 7 mps 768 mmHg 51%
    02:00 +3°C° 0 mm 7 mps 769 mmHg 52%
    03:00 +3°C° 0 mm 7 mps 769 mmHg 52%
    04:00 +2°C° 0 mm 7 mps 769 mmHg 52%
    05:00 +2°C° 0 mm 7 mps 770 mmHg 52%
    06:00 +3°C° 0 mm 7 mps 770 mmHg 51%
    07:00 +2°C° 0 mm 8 mps 771 mmHg 49%
    08:00 +3°C° 0 mm 9 mps 771 mmHg 48%
    09:00 +5°C° 0 mm 9 mps 771 mmHg 46%
    10:00 +7°C° 0 mm 9 mps 771 mmHg 43%
    11:00 +8°C° 0 mm 9 mps 772 mmHg 41%
    12:00 +8°C° 0 mm 9 mps 772 mmHg 39%
    13:00 +10°C° 0 mm 9 mps 772 mmHg 37%
    14:00 +10°C° 0 mm 9 mps 772 mmHg 35%
    15:00 +10°C° 0 mm 8 mps 771 mmHg 36%
    16:00 +9°C° 0 mm 8 mps 771 mmHg 37%
    17:00 +8°C° 0 mm 7 mps 771 mmHg 39%
    18:00 +7°C° 0 mm 6 mps 772 mmHg 43%
    19:00 +5°C° 0 mm 5 mps 772 mmHg 48%
    20:00 +4°C° 0 mm 4 mps 772 mmHg 53%
    21:00 +3°C° 0 mm 4 mps 772 mmHg 55%
    22:00 +3°C° 0 mm 3 mps 773 mmHg 57%
    23:00 +2°C° 0 mm 3 mps 773 mmHg 59%
    Show more